作者hicker (豬頭再打也不會更腫)
看板Baseball
標題[先發] NPB 樂天 VS 火腿 @ 札幌蛋
時間Sun Mar 29 11:29:04 2015
Tohoku Hokkaido
Rakuten Nippon-Ham
Golden Eagles
岡島豪郎 聖澤諒 福田將儀 Fighters
1
聖澤諒 \
西川遙輝 陽岱鋼 谷口雄也 / 1
西川遙輝
2
福田將儀 \
後藤光尊 藤田一也 / 2
田中賢介
3
赤見內銀次 \
中島卓也 田中賢介 / 3
陽岱鋼
4
Pena 赤見內銀次 Sanchez 4
中田翔
5
Sanchez Laird 中田翔 5
Hermida
6
岡島豪郎 \
橫山貴明 / 6
Laird
7
後藤光尊 DH \
克拉帝 / DH 7
近藤健介
8
嶋基宏 Pena \ /
Hermida 8
谷口雄也
9
藤田一也 \ / 9
中島卓也
嶋基宏
FOX Sports 3 HD 直播
近藤健介
十二點開打
--
※ 發信站: 批踢踢實業坊(ptt.cc), 來自: 61.228.18.67
※ 文章網址: https://webptt.com/m.aspx?n=bbs/Baseball/M.1427599747.A.CC1.html
1F:推 lmf770410: 陽今天炸裂,樓下10樓100p 03/29 11:34
2F:推 Hawaii015: 來了 03/29 11:35
3F:推 sakaizawa: 好! 03/29 11:35
4F:推 YuiiAnitima: 推 03/29 11:35
5F:推 a30253: 推 03/29 11:35
6F:推 hotsummer543: 推推 03/29 11:35
7F:推 xyf290: Yoh 炸裂吧!! 03/29 11:36
8F:推 aray0093: 加油! 03/29 11:36
9F:推 hbk20491: 0.0 03/29 11:36
10F:推 jenchieh5: yoh 03/29 11:36
11F:推 aids893001: 推 03/29 11:36
12F:推 Kaberman569: Push 03/29 11:36
13F:推 oostanfordoo: push 03/29 11:37
14F:推 robo3456: 希克拉帝加油 03/29 11:42
15F:推 johnnyno: 炸!! 03/29 11:42
16F:推 bemyself0: 沒付錢看不到了.... 03/29 11:54
17F:→ hicker: FOX開播 03/29 11:58
18F:→ hicker: 本場球評 淑芳姐 03/29 11:58
19F:推 STTKK: 看不到 QQ 03/29 12:01
20F:推 lmf770410: ps. 稅後喔~ 03/29 12:01
21F:推 nthomas: 有付錢也蠻痛苦的 要在mod和有線電視換來換去 03/29 12:05
22F:推 candy04242: 期待一炸 03/29 12:08
23F:推 pollymina: 臺北地區第四臺有fox3嗎? 03/29 12:08
24F:推 YuiiAnitima: 第四台的FOX3在200多台的加值頻道裡面 03/29 12:10
25F:→ YuiiAnitima: 要另外付費 03/29 12:11
26F:推 sxxs: 該不會要點吧.... 03/29 12:11
27F:推 nolimits: FOX3台的普遍率應該不高吧,沒得看了 03/29 12:13
28F:推 pollymina: 謝謝y大QQ 03/29 12:13
29F:推 sxxs: HRRRRRRRRRRRRRRRRRRRRRRRRRRRRRRR 03/29 12:13
30F:推 JoneNan: 炸裂囉 03/29 12:13
31F:→ hicker: YOH HR!! 03/29 12:13
32F:推 aray0093: YOH HR~~ 03/29 12:14
33F:→ sxxs: 鋼砲 03/29 12:14
34F:推 csazrael: HRRRRRRRRRRRRR 03/29 12:14
35F:推 jackyfox23: hr 03/29 12:14
36F:推 bear15328: 1樓真神 03/29 12:14
37F:推 chihow: 沒得看QQ 03/29 12:14
38F:推 awayaway: !!!!!!!!!!!!!!!!!!!! 03/29 12:14
39F:推 yankees733: HRRR 03/29 12:14
40F:→ lrh18: QQPPT:陽岱綱被看破手腳了嗎 謝謝你的加持 03/29 12:15
41F:推 ycsheaven: 說炸就炸說炸就炸! 03/29 12:17
42F:推 qq850405: 請問威達有fox3台嗎 03/29 12:17
43F:推 vincent39: Thank youで~す! 03/29 12:19
44F:推 tonycowzz: 台南是第幾台?? 03/29 12:19
45F:推 aalittle: 看系統業者 有的地方加錢也沒FOX3 03/29 12:19
46F:推 homerun100: 台南也要加錢 03/29 12:20
47F:推 YuiiAnitima: 威達沒有FOX3台喔 連加值頻道都沒有 03/29 12:20
48F:推 phrita: 台南雙子星沒有 03/29 12:20
49F:→ YuiiAnitima: 雙子星在222台 要另外付費 03/29 12:22
50F:→ hicker: 又炸!! 03/29 12:22
51F:推 bleachdie: HR 03/29 12:22
52F:推 robo3456: 單局兩轟 03/29 12:23
53F:→ hicker: LAIRD HR 03/29 12:23
54F:推 gtayu: 讚 03/29 12:23
55F:推 st210113: 投手炸掉了 03/29 12:24
56F:→ hicker: 打不完了.... 03/29 12:25
57F:推 st210113: 這樣也穿出去,會不會第一局就打一輪 03/29 12:26
58F:→ hicker: 現在已經到第八人了 03/29 12:27
59F:推 book8685: fox策略失敗 03/29 12:27
60F:推 OceanAdin: 旅台就是神 03/29 12:29
61F:→ hicker: 谷口內安 真的打一輪了 03/29 12:29
62F:推 Sheng98: 台南三冠王 fs3hd 222, MOD ch178 03/29 12:29
63F:推 sesd: FOX炸裂 賭錯場了 HD少人看陽炸裂 FOX1台多人看 郭炸裂 XD 03/29 12:30
64F:推 st210113: 內安XD 真的打一輪了 03/29 12:30
65F:→ hicker: 札幌蛋的大螢幕超讚 臺灣哪時也可以有這樣的?? 03/29 12:31
66F:推 st210113: 第一局就被打一輪 球數破40球 03/29 12:33
67F:推 furret: 第一局快50球 03/29 12:33
68F:推 Tars: 也好吧 FOX3HD的看起來也舒服 03/29 12:33
69F:→ hicker: BBBB 進入第二輪 03/29 12:33
70F:→ hicker: 樂天換投了 03/29 12:34
71F:推 robo3456: 打不完了 03/29 12:34
72F:→ Tars: 兩場的半局都投不完XD 03/29 12:34
73F:推 Sheng98: 會想看 HD 畫質的比賽早早就先申裝加值頻道了吧 03/29 12:34
74F:推 st210113: 保送XD 03/29 12:35
75F:→ st210113: 投手信心崩盤了吧 03/29 12:35
76F:→ hicker: 西川單局死兩次 03/29 12:37
77F:推 furret: 克拉帝:我終於可以投了 03/29 12:38
78F:推 st210113: 終於XD 03/29 12:38
79F:推 conpo: 陽的鏡頭真多XD 03/29 12:39
80F:推 furret: 直球136? 03/29 12:40
81F:→ ppacers: 克拉帝好強 CPBL比NPB還強 03/29 12:45
82F:推 conpo: NP 03/29 12:49
83F:推 furret: 基宏被跳接 03/29 12:49
84F:推 VaLenTi1007: 克拉帝lucky 03/29 12:49
85F:推 jenchieh5: 基宏可惜 兩個基宏我都超愛看的阿 03/29 12:50
86F:→ conpo: 賢介~~ 賢介~~ 03/29 12:51
87F:推 SoloHomerun: 又換火腿進攻了? 03/29 12:53
88F:推 conpo: 陽要上了 03/29 12:56
89F:→ hicker: 呃 一樓P幣送出去了沒?? 03/29 12:56
90F:推 newsbow: 陽的登場曲換了? 換灌籃高手XD 03/29 12:56
91F:→ hicker: K 03/29 12:57
92F:→ twyes1688: 求 今天 陽 的 HR 影片 03/29 12:57
93F:推 sxxs: K戰士 03/29 12:57
94F:→ conpo: K.. 03/29 12:57
95F:推 bleachdie: KKK 03/29 12:57
96F:推 nolimits: 三球三振... 03/29 12:57
97F:推 furret: 3球k 03/29 12:57
98F:→ jenchieh5: K鬥士 03/29 12:57
99F:推 SoloHomerun: 呃…被KT_T 03/29 12:57
100F:→ Sheng98: HR -> K .....真極端 03/29 12:58
101F:推 ALiGoo: 這球也太高.. 03/29 12:58
102F:→ sxxs: HRRRRRRRRRRRRRRR 03/29 12:58
103F:→ Sheng98: 炸裂 03/29 12:58
104F:→ conpo: 詐 03/29 12:58
105F:→ bleachdie: HRRRRRRR 03/29 12:58
106F:→ hicker: 中田標竿炸裂!! 03/29 12:58
107F:推 best306022: 炸裂啦 03/29 12:58
108F:→ hicker: 火腿今天第三轟 03/29 12:59
110F:推 lmf770410: 還沒人在外面,抱歉 03/29 13:00
111F:→ lmf770410: 晚點會發的,不會食言,哈哈 03/29 13:00
112F:推 gidapops: 樂天打不倒克拉蒂 03/29 13:05
113F:推 ppacers: 克拉帝好強 03/29 13:08
114F:→ sxxs: 這樣都拉真遠 @_@ 03/29 13:10
115F:推 Sheng98: 差一點被 NP 03/29 13:11
116F:推 Sheng98: 三壘打帶有兩分打點 03/29 13:16
117F:推 mimiiy: 打不完 03/29 13:17
118F:→ conpo: 樂天XDD 03/29 13:17
119F:推 s3186j: HHH 03/29 13:17
120F:推 gn02143363: 歡樂? 03/29 13:17
121F:→ hicker: 樂天 0:7 火腿 03/29 13:17
122F:推 sesd: 小久保 鐡拳準備好了 03/29 13:17
123F:→ sesd: 大 03/29 13:17
124F:→ sesd: 實況太愛小久保了 大久保博元都記成小久保XD 03/29 13:18
125F:推 Sheng98: 打率 .000 ...... 03/29 13:19
126F:→ Sheng98: BBBBBBB 03/29 13:21
127F:推 conpo: 陽這下又有機會上來了XDD 03/29 13:21
128F:推 Sheng98: HHHHHH 打不完了 XD 03/29 13:23
129F:推 s3186j: HHH 03/29 13:23
130F:推 conpo: 真的打不完XD 03/29 13:23
131F:→ hicker: 樂天 0:8 火腿 03/29 13:23
132F:→ nolimits: 樂天大爆炸 03/29 13:23
133F:推 mimiiy: 怎麼打怎麼穿 03/29 13:23
134F:→ william7713: 克拉帝: 好久啊~~~~ 03/29 13:23
135F:→ hicker: 才第三局就打到第三輪了 03/29 13:23
136F:→ conpo: 來記三分球吧 03/29 13:24
137F:推 salazopyrin: 打不完啊.... 03/29 13:24
138F:→ mimiiy: DP 03/29 13:24
139F:→ hicker: YOH DP.... 03/29 13:24
140F:→ Sheng98: 噗 DP 03/29 13:24
141F:推 HiHiCano: Dp陽... 03/29 13:24
142F:推 sxxs: 陽....... 03/29 13:24
143F:→ e9ez1: 好慘 只有一支安打 03/29 13:24
144F:→ salazopyrin: 陽是好人 XDDD 03/29 13:24
145F:→ Sheng98: HR, K, DP 都集到了, 剩下 BB 03/29 13:24
146F:推 lmf770410: 克拉帝:怎麼比中職還久 03/29 13:25
147F:→ gidapops: 不錯啦 dp代表打很強 03/29 13:26
148F:推 mimiiy: K 03/29 13:27
149F:推 conpo: K!今天的ガラテ真猛 03/29 13:28
150F:推 Sheng98: 驅逐出場 XDDDDDDDDD 03/29 13:28
151F:→ hicker: PENA抗議被趕出場 03/29 13:28
152F:→ mimiiy: 抗議好球驅逐出場 03/29 13:28
153F:推 salazopyrin: 趕出場啦 03/29 13:28
154F:→ Sheng98: 畫線....... 03/29 13:28
155F:推 OceanAdin: XDDD 03/29 13:28
156F:推 gidapops: 旅犀就是 03/29 13:28
157F:→ jenchieh5: ペーニャ...................... 03/29 13:28
158F:推 Zuleta: Pena本來就不意外阿ww去年隊友沒跑回來差點貓下去 03/29 13:28
159F:推 mimiiy: 三上三下 03/29 13:30
160F:推 conpo: 樂天出局如風啊... 03/29 13:30
161F:推 mimiiy: 應該可以恭喜克拉帝首勝入手了吧……… 03/29 13:32
162F:→ hicker: 差點又炸 03/29 13:37
163F:→ sxxs: 9:0 03/29 13:37
164F:推 Sheng98: 差點過牆的安打 03/29 13:37
165F:推 conpo: 慘不忍睹 03/29 13:37
166F:→ william7713: 打不完 差點又炸 03/29 13:37
167F:→ hicker: 樂天 0:9 火腿 03/29 13:38
168F:→ sxxs: 主播酸陽只打一支安打 XD 03/29 13:38
169F:→ h034826567: 大屠殺的節奏.... 03/29 13:39
170F:推 zokk: 克拉帝是去年eda那個嗎?? 03/29 13:39
171F:→ hicker: 是的 03/29 13:39
172F:→ jenchieh5: 反觀隔壁棚希克苦戰中 03/29 13:40
173F:推 Sheng98: 一個在室內, 一個在室外 03/29 13:41
174F:→ gidapops: 克比較準又有變化球 希克比較快 03/29 13:42
175F:推 lmf770410: 看投球姿勢就知道了吧Xd 03/29 13:42
176F:推 Sheng98: 樂天五局打完未得分 03/29 13:50
177F:推 mimiiy: 克拉帝好穩 03/29 13:50
178F:→ hicker: 不只五局打完得分掛蛋 安打還只是對方的零頭都不到 03/29 13:51
179F:→ Sheng98: 安打終於開張, 打率終於上升 03/29 13:53
180F:→ hicker: 特寫西川打率掛蛋 拍完就安打了 03/29 13:53
181F:→ Sheng98: 擺脫打率 0 的男人 03/29 13:54
182F:推 sxxs: XD 03/29 13:54
183F:→ william7713: 速度好快 這樣就二壘打 03/29 13:54
184F:推 mimiiy: 跑超快 03/29 13:54
185F:推 sharkhead: kkkkkkkkkkkk 03/29 13:54
186F:→ sharkhead: 走錯棚 03/29 13:55
187F:推 Sheng98: BB 03/29 13:56
188F:→ william7713: 要來支三分砲了嗎!! 03/29 13:56
189F:推 conpo: 樂天是覺得自己輸不夠嗎?XDDD 03/29 13:56
190F:→ Sheng98: 灌高登場曲 03/29 13:56
191F:→ Sheng98: 君が好きだと叫びたい 03/29 13:56
192F:→ Sheng98: EEEEEEEE 03/29 13:56
193F:→ hicker: 樂天 0:10 火腿 03/29 13:56
194F:→ conpo: 搞笑 03/29 13:57
195F:推 henry860520: EEEEEEEEEEEEE XDDDDDDDDD 03/29 13:57
196F:→ henry860520: HR K DP E 再來是? 03/29 13:57
197F:→ Sheng98: 5 局未滿已打進 10 分了 03/29 13:57
198F:推 salazopyrin: 個種掉分啊 03/29 13:57
199F:→ Sheng98: 原來換投手了 03/29 13:58
200F:推 gidapops: BB吧 HR算H 03/29 13:59
201F:推 Sheng98: 就差一個 BB 03/29 14:00
202F:→ Sheng98: 不要出現 HBP 就好 03/29 14:00
203F:→ henry860520: 來個 IBB 也不錯(誤 03/29 14:01
204F:→ Sheng98: 0:11 03/29 14:02
205F:→ sxxs: 0:11 03/29 14:02
206F:→ henry860520: 樂天 0 - 11 火腿 03/29 14:02
207F:→ conpo: 先投降算了 03/29 14:02
208F:推 crime: 火腿雙洋砲的威力挺大的!! 陽要好好打,不然第三棒可能不保 03/29 14:03
209F:→ hicker: 要提前結束也要打完五局 何況這是沒提前結束的職棒 03/29 14:03
210F:推 Sheng98: 還有四局要打 03/29 14:04
211F:→ Sheng98: 樂天的牛棚今天會狂燒 03/29 14:04
212F:推 henry860520: 又滿壘了 五下一出局 03/29 14:04
213F:推 Sheng98: 要滿壘才會投? K 掉了..... 03/29 14:07
214F:→ mimiiy: 5局15安11分,得分效率超高 03/29 14:09
215F:推 henry860520: 滿壘連2K 原來滿壘才會投 03/29 14:10
216F:→ Sheng98: 又來一 K .......果然是要滿壘才會投 Orz 03/29 14:10
217F:→ mimiiy: 沒滿壘不會投 03/29 14:10
218F:推 conpo: 危機感發動 03/29 14:10
219F:推 joyna4629: 想看克拉帝投 趕快出局啦(誤 03/29 14:10
220F:→ Sheng98: 五局就劇場 XD 03/29 14:10
221F:推 henry860520: 換投惹 QQ 03/29 14:14
222F:推 mimiiy: 換了,總共幾球啊?應該沒80吧 03/29 14:15
223F:推 joyna4629: 換了 沒看到克拉帝投QQ 03/29 14:15
224F:推 haogo: 投70球就可以下班了 打線真捧場 03/29 14:16
225F:推 conpo: 谷元竟然只有167 03/29 14:17
226F:推 light531: 想看這個看不到 03/29 14:21
227F:推 Sheng98: 來個 BB 吧 03/29 14:27
228F:推 henry860520: 這次是正常出局... 03/29 14:27
229F:→ Sheng98: 游滾 03/29 14:27
230F:推 henry860520: 樂天破蛋 1-11 03/29 14:35
231F:推 Sheng98: 樂天破蛋了 03/29 14:35
232F:→ hicker: 樂天 1:11 火腿 樂天終於破蛋 03/29 14:35
233F:推 YuiiAnitima: 終於破蛋了 03/29 14:36
234F:推 conpo: 這首真不錯 03/29 14:39
235F:→ chester71: 是有多會守.. 03/29 14:48
236F:→ hicker: 打完了 樂天 1:11 火腿 03/29 15:17
237F:推 henry860520: GAME SET 1-11 03/29 15:18